Tracking 30116 objects as of 10-Feb-2025
HD Live streaming from Space Station
objects crossing your sky now

QIANFAN-44

Track QIANFAN-44 now!
10-day predictions
QIANFAN-44 is classified as:


NORAD ID: 62245
Int'l Code: 2024-232J
Perigee: 827.9 km
Apogee: 850.2 km
Inclination: 89.0 °
Period: 101.5 minutes
Semi major axis: 7210 km
RCS: Unknown
Launch date: December 5, 2024
Source: People's Republic of China (PRC)
Launch site: Taiyaun Space Center, China (TSC)
Your satellite tracking list
Your tracking list is empty




NASA's NSSDC Master Catalog

Two Line Element Set (TLE):
1 62245U 24232J   25041.50183160  .00000786  00000-0  37658-3 0  9991
2 62245  88.9878  72.4120 0015432  11.0385 349.1140 14.18057787 57910
Source of the keplerian elements: AFSPC